Date String (YYYY-MM-DD hh:mm:ss) UTC,Instrument flags,Ambient pressure (hPa),Sample flow (lpm),Bypass flow (lpm),Sample temperature (°C),Ambient temperature (°C),ASC tube jacket temperature (°C),LED temperature (°C),Box temperature (°C),Sample RH (%),Span deviation,Mass concentration (μg/m³),Mass concentration (μg/m³),Mass concentration (μg/m³)
DateTimeUTC,F1_M11,P_M11,Q1_M11,Q2_M11,T1_M11,T2_M11,T3_M11,T4_M11,T5_M11,U1_M11,ZSPAN_M11,X0_M11,X2_M11,X1_M11
2022-09-02 19:00:00,,0830.0,5.01,0.00,29.5,26.6,00.0,38.2,31.4,21.2,0000.0,0026.35,0008.88,0007.08
2022-09-02 19:01:00,,0830.0,4.99,0.00,29.5,27.0,00.0,38.2,31.3,21.1,0000.0,0027.13,0008.93,0007.12
2022-09-02 19:02:00,,0829.9,5.01,0.00,29.5,27.2,00.0,38.1,31.2,20.7,0000.0,0029.03,0009.06,0007.16
2022-09-02 19:03:00,,0829.9,5.00,0.00,29.5,27.5,00.0,38.1,31.3,20.7,0000.0,0029.57,0009.22,0007.19
2022-09-02 19:04:00,,0829.8,5.00,0.00,29.5,27.8,00.0,38.1,31.3,20.7,0000.0,0029.97,0009.32,0007.25
2022-09-02 19:05:00,,0829.8,5.00,0.00,29.5,28.1,00.0,38.2,31.4,20.3,0000.0,0030.46,0009.41,0007.33
2022-09-02 19:06:00,,0829.9,5.02,0.00,29.6,28.3,00.0,38.2,31.5,20.1,0000.0,0030.94,0009.48,0007.40
2022-09-02 19:07:00,,0829.9,4.97,0.00,29.6,28.2,00.0,38.2,31.5,19.5,0000.0,0029.67,0009.59,0007.49
2022-09-02 19:08:00,,0829.8,5.00,0.00,29.6,27.1,00.0,38.2,31.3,19.5,0000.0,0029.88,0009.71,0007.56
2022-09-02 19:09:00,,0829.8,5.00,0.00,29.5,26.7,00.0,38.2,31.3,19.8,0000.0,0029.23,0009.82,0007.66
2022-09-02 19:10:00,,0829.9,5.00,0.00,29.5,26.9,00.0,38.1,31.3,19.6,0000.0,0028.99,0009.96,0007.75
2022-09-02 19:11:00,,0829.9,4.99,0.00,29.5,27.2,00.0,38.1,31.2,19.2,0000.0,0027.58,0010.04,0007.85
2022-09-02 19:12:00,,0829.9,5.02,0.00,29.5,27.5,00.0,38.1,31.3,19.0,0000.0,0026.37,0010.04,0007.91
2022-09-02 19:13:00,,0829.8,5.00,0.00,29.5,27.8,00.0,38.1,31.3,19.3,0000.0,0025.64,0010.13,0007.95
2022-09-02 19:14:00,,0829.9,5.01,0.00,29.5,28.1,00.0,38.1,31.4,19.0,0000.2,0025.49,0010.16,0007.99
2022-09-02 19:15:00,,0830.0,4.99,0.00,29.6,28.3,00.0,38.2,31.5,18.6,0000.5,0024.94,0010.12,0008.03
2022-09-02 19:16:00,,0830.0,4.99,0.00,29.6,27.6,00.0,38.2,31.4,18.5,0000.8,0025.05,0010.04,0008.05
2022-09-02 19:17:00,,0829.9,5.00,0.00,29.5,26.6,00.0,38.2,31.3,18.7,0000.9,0025.32,0009.96,0008.06
2022-09-02 19:18:00,,0829.9,5.00,0.00,29.5,26.7,00.0,38.1,31.3,18.9,0001.0,0026.40,0009.99,0008.09
2022-09-02 19:19:00,,0830.0,4.99,0.00,29.5,27.0,00.0,38.1,31.2,19.0,0000.8,0027.32,0010.03,0008.14
2022-09-02 19:20:00,,0830.0,5.02,0.00,29.4,27.3,00.0,38.1,31.1,19.1,0000.8,0026.82,0010.03,0008.16
2022-09-02 19:21:00,,0829.9,5.00,0.00,29.5,27.6,00.0,38.1,31.2,19.3,0000.7,0027.32,0010.01,0008.18
2022-09-02 19:22:00,,0829.9,5.00,0.00,29.5,27.9,00.0,38.1,31.3,18.5,0000.5,0027.91,0010.06,0008.18
2022-09-02 19:23:00,,0830.0,4.98,0.00,29.5,28.2,00.0,38.1,31.4,18.1,0000.5,0028.08,0010.13,0008.23
2022-09-02 19:24:00,,0829.9,5.00,0.00,29.6,28.1,00.0,38.1,31.5,18.2,0000.8,0027.44,0010.06,0008.25
2022-09-02 19:25:00,,0829.9,5.01,0.00,29.6,27.0,00.0,38.1,31.4,18.3,0001.1,0028.17,0010.02,0008.28
2022-09-02 19:26:00,,0829.9,5.00,0.00,29.5,26.5,00.0,38.1,31.3,18.9,0001.2,0028.20,0010.13,0008.33
2022-09-02 19:27:00,,0830.0,4.99,0.00,29.5,26.8,00.0,38.1,31.3,18.7,0001.4,0028.08,0010.17,0008.36
2022-09-02 19:28:00,,0829.9,4.99,0.00,29.4,27.1,00.0,38.1,31.2,18.3,0001.5,0027.47,0010.19,0008.40
2022-09-02 19:29:00,,0829.9,5.02,0.00,29.4,27.4,00.0,38.1,31.2,18.5,0001.4,0026.29,0010.18,0008.41
2022-09-02 19:30:00,,0829.9,5.00,0.00,29.5,27.7,00.0,38.1,31.3,19.0,0001.6,0024.29,0010.15,0008.40
2022-09-02 19:31:00,,0829.9,4.99,0.00,29.5,28.0,00.0,38.1,31.4,18.7,0001.7,0024.65,0010.18,0008.41
2022-09-02 19:32:00,,0829.9,5.00,0.00,29.5,28.2,00.0,38.1,31.5,18.7,0001.5,0024.14,0010.24,0008.44
2022-09-02 19:33:00,,0829.9,4.99,0.00,29.6,27.7,00.0,38.1,31.5,18.7,0001.6,0023.39,0010.23,0008.48
2022-09-02 19:34:00,,0829.9,5.01,0.00,29.5,26.7,00.0,38.1,31.3,18.6,0001.2,0023.14,0010.19,0008.50
2022-09-02 19:35:00,,0829.9,5.00,0.00,29.5,26.7,00.0,38.1,31.3,18.7,0000.0,0023.08,0010.25,0008.54
2022-09-02 19:36:00,,0830.0,4.99,0.00,29.5,27.0,00.0,38.1,31.3,18.7,0000.0,0022.07,0010.34,0008.57
2022-09-02 19:37:00,,0829.9,5.00,0.00,29.4,27.3,00.0,38.1,31.2,18.6,0000.0,0022.03,0010.31,0008.57
2022-09-02 19:38:00,,0829.9,5.00,0.00,29.4,27.6,00.0,38.1,31.2,18.6,0000.0,0022.94,0010.31,0008.56
2022-09-02 19:39:00,,0829.9,5.00,0.00,29.5,27.9,00.0,38.1,31.3,19.1,0000.3,0022.48,0010.40,0008.58
2022-09-02 19:40:00,,0829.9,5.00,0.00,29.5,28.1,00.0,38.1,31.4,19.3,0000.5,0021.91,0010.46,0008.62
2022-09-02 19:41:00,,0829.9,4.99,0.00,29.5,28.1,00.0,38.1,31.4,19.0,0001.6,0021.25,0010.46,0008.66
2022-09-02 19:42:00,,0829.9,5.00,0.00,29.5,27.1,00.0,38.1,31.3,18.7,0001.7,0020.72,0010.50,0008.70
2022-09-02 19:43:00,,0829.9,5.01,0.00,29.5,26.5,00.0,38.1,31.2,18.8,0003.0,0021.42,0010.52,0008.72
2022-09-02 19:44:00,,0829.9,5.00,0.00,29.4,26.8,00.0,38.1,31.2,18.5,0003.8,0021.50,0010.53,0008.74
2022-09-02 19:45:00,,0829.9,4.99,0.00,29.4,27.1,00.0,38.0,31.1,18.6,0004.0,0022.58,0010.56,0008.75
2022-09-02 19:46:00,,0829.9,5.01,0.00,29.4,27.4,00.0,38.0,31.2,18.7,0003.7,0022.56,0010.55,0008.76
2022-09-02 19:47:00,,0830.0,5.00,0.00,29.4,27.7,00.0,38.0,31.2,18.6,0003.7,0023.07,0010.50,0008.77
2022-09-02 19:48:00,,0829.9,4.99,0.00,29.5,28.0,00.0,38.1,31.3,18.7,0002.7,0023.76,0010.56,0008.80
2022-09-02 19:49:00,,0830.0,4.99,0.00,29.5,28.0,00.0,38.1,31.4,18.3,0002.6,0022.67,0010.63,0008.86
2022-09-02 19:50:00,,0830.0,5.00,0.00,29.5,27.1,00.0,38.1,31.3,17.9,0000.5,0023.03,0010.68,0008.88
2022-09-02 19:51:00,,0829.9,4.99,0.00,29.4,26.5,00.0,38.1,31.2,18.1,0000.0,0023.39,0010.70,0008.88
2022-09-02 19:52:00,,0830.0,4.99,0.00,29.4,26.7,00.0,38.0,31.2,18.0,0000.0,0023.85,0010.69,0008.88
2022-09-02 19:53:00,,0830.0,5.00,0.00,29.4,27.0,00.0,38.0,31.1,18.1,0000.0,0024.18,0010.64,0008.88
2022-09-02 19:54:00,,0830.0,5.00,0.00,29.4,27.4,00.0,38.0,31.1,18.0,0000.0,0024.07,0010.55,0008.88
2022-09-02 19:55:00,,0830.0,5.00,0.00,29.4,27.7,00.0,38.0,31.2,18.0,0000.0,0023.51,0010.50,0008.88
2022-09-02 19:56:00,,0830.0,5.01,0.00,29.4,28.0,00.0,38.0,31.3,17.8,0000.0,0022.15,0010.43,0008.86
2022-09-02 19:57:00,,0830.0,5.00,0.00,29.5,28.0,00.0,38.0,31.3,17.5,0000.0,0022.42,0010.36,0008.83
2022-09-02 19:58:00,,0830.0,4.99,0.00,29.4,27.0,00.0,38.0,31.2,17.6,0000.0,0022.77,0010.34,0008.79
2022-09-02 19:59:00,,0830.0,5.00,0.00,29.4,26.4,00.0,38.0,31.1,17.4,0000.0,0021.78,0010.24,0008.75
